{"data":{"norad_id":63513,"intl_designator":"2025-071W","name":"STARLINK-33750","alt_names":[],"object_type":"PAYLOAD","status":"ACTIVE","operator":null,"country":"US","launch_date":"2025-04-07","launch_site_code":"AFWTR","launch_vehicle":null,"mission":null,"orbit_class":"UNKNOWN","rcs_meters":null,"size_class":null,"mass_kg":null,"dimensions":null,"purposes":["comms"],"wikipedia_slug":null,"has_3d_model":false,"image_url":null,"decayed_at":null,"tle_current":{"epoch":"2026-05-24T23:47:59.239104Z","epoch_age_seconds":86485,"freshness":"FRESH","line1":"1 63513U 25071W   26144.99165786  .00015335  00000+0  50463-3 0  9998","line2":"2 63513  53.1600 145.3630 0001502  73.7599 286.3568 15.31716869 64437","mean_motion":15.31716869,"eccentricity":0.0001502,"inclination_deg":53.16,"raan_deg":145.363,"arg_perigee_deg":73.7599,"mean_anomaly_deg":286.3568,"bstar":0.00050463,"rev_number":6443,"period_min":94.012152581444,"perigee_km":469.66101630409,"apogee_km":471.71840384779,"semimajor_km":6848.8267100759,"source":"CELESTRAK","updated_at":"2026-05-25T13:38:20.038281Z"}}}